Regional Weather Roundup
Issued by NWS

Home | Current Version | Previous Version | Graphics & Text | Print | Product List | Glossary On
Versions: 1 2 3 4 5 6 7 8 9 10 11 12 13 14 15 16 17 18 19 20 21 22 23 24 25 26 27 28 29 30 31 32 33 34 35 36 37 38 39 40 41 42 43 44 45 46 47 48 49 50
000
ASUS44 KMEG 010210
RWRTN
TENNESSEE HOURLY STATE WEATHER ROUNDUP
NATIONAL WEATHER SERVICE MEMPHIS TN
900 PM CDT FRI SEP 30 2016

TNZ002-004-019-021-049-052-054-088>092-010300-
WEST TENNESSEE

CITY           SKY/WX    TMP DP  RH WIND       PRES   REMARKS
MEMPHIS INTL   MOCLDY    68  54  60 NW5       30.06R
NWS MEMPHIS      N/A     66 N/A N/A MISG        N/A
JACKSON          N/A    N/A N/A N/A MISG      30.05S
DYERSBURG      CLOUDY   N/A N/A N/A MISG        N/A
UNION CITY     CLOUDY    63  59  88 CALM      30.03F
PARIS          PTCLDY    55  54  94 CALM      30.05S
HUNTINGDON     CLOUDY    61  59  94 CALM      30.04R
LEXINGTON      MOCLDY    61  57  88 CALM      30.05S
$$

TNZ008-025-027-028-033-062-065-066-010300-
NORTH MIDDLE TENNESSEE

CITY           SKY/WX    TMP DP  RH WIND       PRES   REMARKS
NASHVILLE      CLOUDY    60  58  92 CALM      30.05R
PORTLAND       MOCLDY    57  55  94 S6        30.04R
CLARKSVILLE    CLOUDY    62  58  86 W3        30.04R
SMYRNA         MOCLDY    60  56  86 SW5       30.06R
COOKEVILLE     MOCLDY    57  55  94 CALM      30.06R
GALLATIN       CLOUDY    59  59 100 CALM      30.07R
CROSSVILLE     MOCLDY    54  49  83 S3        30.08S
$$

TNZ061-075-076-078-094-096-097-010300-
SOUTH MIDDLE TENNESSEE

CITY           SKY/WX    TMP DP  RH WIND       PRES   REMARKS
FAYETTEVILLE   CLOUDY    59  54  82 CALM      30.07R
TULLAHOMA      MOCLDY    55  52  88 CALM      30.08S
WINCHESTER     MOCLDY    55  52  88 CALM      30.07F
MCMINNVILLE    CLOUDY    61  55  82 S5        30.07S
COLUMBIA       CLEAR    N/A N/A N/A CALM      30.04S
SHELBYVILLE    CLOUDY    57  54  88 SE3       30.07S
$$

TNZ017-018-042-046-047-010300-
NORTHEAST TENNESSEE

CITY           SKY/WX    TMP DP  RH WIND       PRES   REMARKS
TRI CITIES     PTCLDY    58  53  84 CALM      30.06S
ELIZABETHTON     N/A     55  54  94 CALM      30.06F
$$

TNZ012-013-036-069-073-074-010300-
CENTRAL EAST TENNESSEE

CITY           SKY/WX    TMP DP  RH WIND       PRES   REMARKS
KNOXVILLE      CLEAR     62  47  57 CALM      30.04S
OAK RIDGE      CLEAR     59  50  72 CALM      30.07R
DOWNTOWN KNOXV CLEAR     57  52  82 CALM      30.05S
GATLINBURG     CLEAR     55  45  67 CALM      30.06R
MORRISTOWN     PTCLDY    57  46  67 CALM      30.05S
JACKSBORO      MOCLDY    55  50  82 CALM      30.09R
$$

TNZ083-085-099-010300-
SOUTHEAST TENNESSEE

CITY           SKY/WX    TMP DP  RH WIND       PRES   REMARKS
CHATTANOOGA    PTCLDY    63  49  60 CALM      30.05S
$$

SKY/WX REPORTED AS FAIR MEANS FEW OR NO CLOUDS BELOW
12 THOUSAND FEET.





USA.gov is the U.S. government's official web portal to all federal, state and local government web resources and services.